Location: *
(34.6903°N, 135.5184°E)
Time: 22:16:52
(UTC+00:00)

Cosmos 1428 Rocket - Pass Details

Date: 22 September 2019
Orbit: 947 x 989 km, 82.9° (Epoch: 20 October)

Event Time Altitude Azimuth Distance (km) Brightness Sun altitude
Exits shadow 18:44:29 59° 246° (WSW) 1,131 4.4 -25.3°
Maximum altitude 18:45:12 63° 278° (W) 1,093 4.4 -25.2°
Drops below altitude 10° 18:51:25 10° 359° (N) 2,736 7.0 -24.0°
Sets 18:53:58 0° 3° (N) 3,682 7.8 -23.5°
